Regional Weather Roundup
Issued by NWS

Home | Current Version | Previous Version | Graphics & Text | Print | Product List | Glossary On
Versions: 1 2 3 4 5 6 7 8 9 10 11 12 13 14 15 16 17 18 19 20 21 22 23 24 25 26 27 28 29 30 31 32 33 34 35 36 37 38 39 40 41 42 43 44 45 46 47 48 49 50
493
ASUS43 KTOP 280808
RWRKS

WEATHER ROUNDUP FOR KANSAS
NATIONAL WEATHER SERVICE GOODLAND KS
300 AM CDT THU JUL 28 2016

NOTE:  "FAIR" INDICATES FEW OR NO CLOUDS BELOW 12,000 FEET WITH NO
SIGNIFICANT WEATHER AND/OR OBSTRUCTIONS TO VISIBILITY.

KSZ001>006-013>018-027>032-041>047-280900-
NORTHWEST KANSAS

CITY           SKY/WX    TMP DP  RH WIND       PRES   REMARKS
GOODLAND       CLEAR     61  58  90 E7        30.14F
HAYS           CLOUDY    75  64  69 SW8G18    30.05R THUNDER
HILL CITY      CLOUDY    71  68  90 S5        30.06F
RUSSELL        CLOUDY    73  69  87 NE7       30.02F
$$

KSZ061>065-074>080-084>089-280900-
SOUTHWEST KANSAS

CITY           SKY/WX    TMP DP  RH WIND       PRES   REMARKS
DODGE CITY     PTCLDY    69  67  93 W3        30.06S
ELKHART          N/A     67  57  70 W8          N/A
GARDEN CITY    TSTM      64  59  83 W9        30.18R
GREAT BEND     CLOUDY    73  64  73 CALM      30.02S
LIBERAL        CLEAR     68  63  83 N10       30.11R
PRATT          CLEAR     69  65  89 S3        30.02F
$$

KSZ066>073-081>083-090>101-280900-
SOUTHEAST KANSAS

CITY           SKY/WX    TMP DP  RH WIND       PRES   REMARKS
CHANUTE        CLEAR     75  73  93 CALM      29.94S
COFFEYVILLE    CLEAR     74  74 100 S3        29.94F
HUTCHINSON     CLEAR     72  69  90 CALM      30.00S
MEDICINE LODGE   N/A     72  66  81 N3        29.99S
NEWTON         CLEAR     73  71  93 CALM      30.00R
PARSONS        CLEAR     74  72  93 CALM      29.95F
WICHITA INTL   PTCLDY    76  72  87 CALM      29.98R
WICHITA JABRA  CLEAR     74  72  93 SW5       29.98R
WICHITA MCCONL CLEAR     78  72  81 W3        29.98R
WINFIELD       CLEAR     74  70  87 CALM      29.98S
$$

KSZ007>012-019>026-033>040-048>060-102>105-280900-
NORTHEAST KANSAS

CITY           SKY/WX    TMP DP  RH WIND       PRES   REMARKS
CONCORDIA      CLEAR     73  67  81 CALM      30.01F
EMPORIA        PTCLDY    74  72  93 W3        29.97R
LAWRENCE       MOCLDY    70  69  97 NW3       29.94S
MANHATTAN      PTCLDY    73  69  87 CALM      29.98R
MARYSVILLE     CLEAR     68  66  94 N3        29.99S
OLATHE IND     PTCLDY    74  71  91 CALM      29.95F
OLATHE EXE     MOCLDY    74  71  91 CALM      29.94F
SALINA         MOCLDY    77  69  76 NW3       29.99F
TOPEKA BILLARD CLEAR     75  69  81 CALM      29.95S
TOPEKA FORBES  CLEAR     76  70  82 N3        29.96S
$$




USA.gov is the U.S. government's official web portal to all federal, state and local government web resources and services.